Location: Unspecified
(0.0000°N, 0.0000°E)
Time: 06:29:29
(UTC+00:00)

Vanguard 2 - Pass Details

Date: 28 May 2026
Orbit: 553 x 2894 km, 32.9° (Epoch: 9 June)

Event Time Altitude Azimuth Distance (km) Brightness Sun altitude
Rises 07:00:08 0° 297° (WNW) 6,604 11.9 14.6°
Reaches altitude 10° 07:04:56 10° 294° (WNW) 5,414 11.5 15.7°
Maximum altitude 07:19:52 58° 219° (SW) 2,268 9.9 19.1°
Drops below altitude 10° 07:29:19 10° 141° (SE) 3,536 11.2 21.3°
Sets 07:31:49 0° 137° (SE) 4,247 11.6 21.9°
